This is the latest recevied weather packets stored in our database for station/object WX7FGZ-6. If no packets are shown the sender has not sent any weather packets the latest 1 day(s).
| Time | Temp. | Humidity | Pressure | Rain* | Wind** | Luminosity | Snow |
|---|---|---|---|---|---|---|---|
| 1778003951 | 0° C | 73% | 1013.1 hPa | 0 mm | 3.58 m/s, 185° | - | - |
| 1778003651 | -0.56° C | 75% | 1013.1 hPa | 0 mm | 2.68 m/s, 180° | - | - |
| 1778003558 | -1.11° C | 72% | 1013 hPa | 0 mm | 3.13 m/s, 165° | - | - |
| 1778003351 | -1.11° C | 72% | 1013 hPa | 0 mm | 3.13 m/s, 165° | - | - |
| 1778003051 | -1.11° C | 72% | 1012.9 hPa | 0 mm | 4.47 m/s, 169° | - | - |
| 1778002751 | -1.11° C | 77% | 1012.8 hPa | 0 mm | 4.02 m/s, 170° | - | - |
| 1778002451 | -1.67° C | 78% | 1013 hPa | 0 mm | 3.13 m/s, 169° | - | - |
| 1778001860 | -2.22° C | 79% | 1012.8 hPa | 0 mm | 5.36 m/s, 167° | - | - |
| 1778001560 | -2.22° C | 80% | 1012.8 hPa | 0 mm | 2.24 m/s, 169° | - | - |
| 1778001451 | -1.67° C | 81% | 1013.3 hPa | 0 mm | 4.02 m/s, 170° | - | - |
| 1778001260 | -1.67° C | 81% | 1013.3 hPa | 0 mm | 4.02 m/s, 170° | - | - |
| 1778001176 | -2.22° C | 81% | 1013.3 hPa | 0 mm | 2.68 m/s, 171° | - | - |
| 1778000960 | -2.22° C | 81% | 1013.3 hPa | 0 mm | 2.68 m/s, 171° | - | - |
| 1778000660 | -2.22° C | 80% | 1013 hPa | 0 mm | 3.58 m/s, 174° | - | - |
| 1778000231 | -2.78° C | 77% | 1012.9 hPa | 0 mm | 3.58 m/s, 172° | - | - |
| 1777999931 | -3.33° C | 86% | 1012.9 hPa | 0 mm | 1.34 m/s, 182° | - | - |
| 1777999796 | -3.89° C | 87% | 1012.9 hPa | 0 mm | 2.68 m/s, 187° | - | - |
| 1777999632 | -3.89° C | 87% | 1012.9 hPa | 0 mm | 2.68 m/s, 187° | - | - |
| 1777999332 | -3.33° C | 88% | 1013 hPa | 0 mm | 3.13 m/s, 174° | - | - |
| 1777999032 | -3.89° C | 88% | 1013 hPa | 0 mm | 2.24 m/s, 193° | - | - |
| 1777998731 | -3.89° C | 89% | 1012.8 hPa | 0 mm | 2.68 m/s, 183° | - | - |
| 1777998432 | -3.89° C | 89% | 1012.8 hPa | 0 mm | 3.13 m/s, 184° | - | - |
| 1777998132 | -3.89° C | 90% | 1012.6 hPa | 0 mm | 3.13 m/s, 186° | - | - |
| 1777997832 | -3.89° C | 90% | 1012.5 hPa | 0 mm | 2.68 m/s, 194° | - | - |
| 1777997532 | -3.89° C | 91% | 1012.4 hPa | 0 mm | 1.79 m/s, 201° | - | - |
* Rain latest hour (hover to see other rain measurements)
** Current wind speed in m/s (hover to see current wind gust speed)